JBU1703 TJSJ-SKRG

Flight info

Callsign JBU1703
Flight time 2h 41m
Altitude 36000
Route SJU RTE2 BQN B520 ANTEX DCT ILAMO UM525 SELAN UG444 ELB DCT DIMOL DCT OBLUL OBLUL1A
Aircraft A320/M-SDE3FGHIRWY/LB1

Departure

Time 2026-04-24 21:13
Airport Luis Munoz Marin International Airport (TJSJ)

Arrival

Time 2026-04-24 23:54
Airport Jose Maria Córdova International Airport (SKRG)
Time Latitude Longitude Altitude Speed Heading
2026-04-24 21:04 18.43465 -66.00545 17 ft 0 kts 271°
2026-04-24 21:06 18.43465 -66.00548 17 ft 1 kts 270°
2026-04-24 21:06 18.43466 -66.00579 20 ft 6 kts 270°
2026-04-24 21:06 18.43466 -66.00629 17 ft 8 kts 270°
2026-04-24 21:07 18.43466 -66.00690 17 ft 9 kts 270°
2026-04-24 21:07 18.43466 -66.00761 17 ft 10 kts 270°
2026-04-24 21:07 18.43466 -66.00842 17 ft 12 kts 270°
2026-04-24 21:07 18.43466 -66.00933 17 ft 13 kts 270°
2026-04-24 21:08 18.43466 -66.01035 17 ft 15 kts 270°
2026-04-24 21:08 18.43467 -66.01147 17 ft 16 kts 270°
2026-04-24 21:08 18.43467 -66.01269 17 ft 17 kts 270°
2026-04-24 21:08 18.43467 -66.01380 17 ft 11 kts 270°
2026-04-24 21:09 18.43502 -66.01436 17 ft 10 kts 349°
2026-04-24 21:09 18.43579 -66.01436 17 ft 12 kts
2026-04-24 21:09 18.43665 -66.01436 17 ft 11 kts 360°
2026-04-24 21:09 18.43729 -66.01437 17 ft 8 kts 356°
2026-04-24 21:10 18.43759 -66.01478 17 ft 8 kts 264°
2026-04-24 21:10 18.43756 -66.01510 17 ft 0 kts 273°
2026-04-24 21:10 18.43756 -66.01511 17 ft 1 kts 273°
2026-04-24 21:11 18.43770 -66.01538 18 ft 7 kts 314°
2026-04-24 21:11 18.43821 -66.01572 17 ft 9 kts 347°
2026-04-24 21:11 18.43858 -66.01531 17 ft 0 kts 67°
2026-04-24 21:12 18.43891 -66.01450 17 ft 40 kts 67°
2026-04-24 21:12 18.44011 -66.01153 20 ft 88 kts 67°
2026-04-24 21:12 18.44465 -66.00034 18 ft 158 kts 66°
2026-04-24 21:12 18.44960 -65.98901 420 ft 172 kts 67°
2026-04-24 21:13 18.45622 -65.97854 1123 ft 177 kts 41°
2026-04-24 21:13 18.46790 -65.97423 1809 ft 187 kts
2026-04-24 21:13 18.48134 -65.97741 2054 ft 211 kts 340°
2026-04-24 21:13 18.49563 -65.98371 2263 ft 235 kts 336°
2026-04-24 21:14 18.51133 -65.99111 2577 ft 259 kts 336°
2026-04-24 21:14 18.52832 -65.99921 3137 ft 274 kts 336°
2026-04-24 21:14 18.54577 -66.00746 3990 ft 276 kts 336°
2026-04-24 21:14 18.56350 -66.01562 4862 ft 279 kts 336°
2026-04-24 21:15 18.58144 -66.02366 5693 ft 282 kts 336°
2026-04-24 21:15 18.59951 -66.03207 6447 ft 285 kts 328°
2026-04-24 21:15 18.61452 -66.04561 7196 ft 286 kts 304°
2026-04-24 21:15 18.62315 -66.06438 7981 ft 286 kts 281°
2026-04-24 21:16 18.62396 -66.08520 8720 ft 286 kts 261°
2026-04-24 21:16 18.62139 -66.10611 9462 ft 289 kts 260°
2026-04-24 21:16 18.61879 -66.12698 10131 ft 292 kts 261°
2026-04-24 21:16 18.61608 -66.14873 10487 ft 308 kts 261°
2026-04-24 21:17 18.61327 -66.17176 10724 ft 326 kts 261°
2026-04-24 21:17 18.61033 -66.19606 10967 ft 342 kts 261°
2026-04-24 21:17 18.60726 -66.22143 11243 ft 355 kts 261°
2026-04-24 21:17 18.60520 -66.23901 11563 ft 359 kts 262°
2026-04-24 21:18 18.60211 -66.27390 12296 ft 364 kts 264°
2026-04-24 21:18 18.60034 -66.30058 12873 ft 366 kts 265°
2026-04-24 21:18 18.59879 -66.32749 13451 ft 369 kts 265°
2026-04-24 21:18 18.59725 -66.35456 13974 ft 371 kts 265°
2026-04-24 21:19 18.59564 -66.38181 14459 ft 374 kts 265°
2026-04-24 21:19 18.59391 -66.40921 14954 ft 375 kts 265°
2026-04-24 21:19 18.59209 -66.43670 15450 ft 377 kts 265°
2026-04-24 21:19 18.59018 -66.46431 15939 ft 379 kts 264°
2026-04-24 21:20 18.58632 -66.51991 16941 ft 382 kts 264°
2026-04-24 21:20 18.58440 -66.54788 17436 ft 384 kts 264°
2026-04-24 21:20 18.58247 -66.57602 17939 ft 386 kts 264°
2026-04-24 21:21 18.58053 -66.60424 18394 ft 387 kts 264°
2026-04-24 21:21 18.57858 -66.63262 18813 ft 389 kts 264°
2026-04-24 21:21 18.57664 -66.66109 19249 ft 390 kts 264°
2026-04-24 21:21 18.57467 -66.68964 19681 ft 391 kts 264°
2026-04-24 21:22 18.57268 -66.71830 20115 ft 393 kts 264°
2026-04-24 21:22 18.57066 -66.74706 20545 ft 394 kts 264°
2026-04-24 21:22 18.56862 -66.77591 20965 ft 395 kts 264°
2026-04-24 21:22 18.56726 -66.79508 21241 ft 396 kts 264°
2026-04-24 21:23 18.56451 -66.83391 21787 ft 398 kts 264°
2026-04-24 21:23 18.56249 -66.86306 22185 ft 400 kts 264°
2026-04-24 21:23 18.56046 -66.89233 22583 ft 401 kts 264°
2026-04-24 21:23 18.55840 -66.92171 22969 ft 403 kts 264°
2026-04-24 21:24 18.55633 -66.95119 23345 ft 404 kts 264°
2026-04-24 21:24 18.55421 -66.98077 23687 ft 406 kts 264°
2026-04-24 21:24 18.55210 -67.01046 23998 ft 407 kts 264°
2026-04-24 21:24 18.54997 -67.04025 24307 ft 408 kts 264°
2026-04-24 21:25 18.54786 -67.06973 24619 ft 409 kts 264°
2026-04-24 21:25 18.54574 -67.09966 24919 ft 411 kts 264°
2026-04-24 21:25 18.54360 -67.13012 25217 ft 412 kts 264°
2026-04-24 21:25 18.54146 -67.16029 25519 ft 413 kts 264°
2026-04-24 21:26 18.53932 -67.19010 25819 ft 415 kts 264°
2026-04-24 21:26 18.53713 -67.22043 26129 ft 416 kts 264°
2026-04-24 21:26 18.53491 -67.25085 26434 ft 417 kts 264°
2026-04-24 21:26 18.53268 -67.28139 26732 ft 418 kts 264°
2026-04-24 21:27 18.53043 -67.31197 27027 ft 420 kts 264°
2026-04-24 21:27 18.52816 -67.34265 27388 ft 419 kts 264°
2026-04-24 21:27 18.52593 -67.37317 27829 ft 417 kts 264°
2026-04-24 21:27 18.52445 -67.39371 28128 ft 415 kts 264°
2026-04-24 21:28 18.52153 -67.43379 28720 ft 413 kts 264°
2026-04-24 21:28 18.51933 -67.46389 29166 ft 411 kts 264°
2026-04-24 21:28 18.51711 -67.49383 29613 ft 409 kts 264°
2026-04-24 21:28 18.51484 -67.52366 30080 ft 408 kts 264°
2026-04-24 21:29 18.51259 -67.55334 30454 ft 406 kts 264°
2026-04-24 21:29 18.51043 -67.58291 30854 ft 404 kts 264°
2026-04-24 21:29 18.50841 -67.61229 31259 ft 401 kts 264°
2026-04-24 21:29 18.50492 -67.64126 31662 ft 397 kts 253°
2026-04-24 21:30 18.49459 -67.66799 32065 ft 394 kts 240°
2026-04-24 21:30 18.47823 -67.69104 32458 ft 393 kts 230°
2026-04-24 21:30 18.46021 -67.71261 32876 ft 391 kts 231°
2026-04-24 21:30 18.44254 -67.73424 33306 ft 388 kts 231°
2026-04-24 21:31 18.42516 -67.75587 33743 ft 386 kts 231°
2026-04-24 21:31 18.40796 -67.77741 34143 ft 383 kts 231°
2026-04-24 21:31 18.39086 -67.79883 34470 ft 381 kts 231°
2026-04-24 21:31 18.37380 -67.82010 34767 ft 380 kts 231°
2026-04-24 21:32 18.35671 -67.84128 35058 ft 379 kts 231°
2026-04-24 21:32 18.33962 -67.86238 35332 ft 378 kts 231°
2026-04-24 21:32 18.32257 -67.88343 35598 ft 378 kts 231°
2026-04-24 21:32 18.30554 -67.90447 35845 ft 378 kts 231°
2026-04-24 21:33 18.28849 -67.92549 35933 ft 379 kts 231°
2026-04-24 21:33 18.25378 -67.96833 35950 ft 389 kts 231°
2026-04-24 21:34 18.21849 -68.01185 35950 ft 392 kts 231°
2026-04-24 21:34 18.18904 -68.04819 35952 ft 393 kts 231°
2026-04-24 21:35 18.15352 -68.09190 35948 ft 393 kts 231°
2026-04-24 21:35 18.11795 -68.13564 35951 ft 394 kts 231°
2026-04-24 21:36 18.08235 -68.17948 35951 ft 394 kts 231°
2026-04-24 21:36 18.04674 -68.22333 35955 ft 395 kts 231°
2026-04-24 21:37 18.01105 -68.26716 35951 ft 395 kts 231°
2026-04-24 21:37 17.97527 -68.31096 35958 ft 395 kts 231°
2026-04-24 21:38 17.93953 -68.35483 35957 ft 395 kts 231°
2026-04-24 21:38 17.90375 -68.39870 35954 ft 395 kts 231°
2026-04-24 21:39 17.86794 -68.44253 35951 ft 396 kts 231°
2026-04-24 21:39 17.83209 -68.48647 35951 ft 396 kts 231°
2026-04-24 21:40 17.79621 -68.53037 35953 ft 396 kts 231°
2026-04-24 21:40 17.76064 -68.57462 35950 ft 397 kts 231°
2026-04-24 21:41 17.72564 -68.61891 35952 ft 397 kts 231°
2026-04-24 21:41 17.69020 -68.66342 35953 ft 398 kts 231°
2026-04-24 21:42 17.65472 -68.70796 35956 ft 398 kts 231°
2026-04-24 21:42 17.61918 -68.75254 35957 ft 398 kts 231°
2026-04-24 21:43 17.58363 -68.79706 35956 ft 398 kts 231°
2026-04-24 21:43 17.54801 -68.84158 35956 ft 398 kts 231°
2026-04-24 21:44 17.51239 -68.88607 35957 ft 398 kts 231°
2026-04-24 21:44 17.47676 -68.93057 35954 ft 399 kts 231°
2026-04-24 21:45 17.44116 -68.97505 35956 ft 399 kts 231°
2026-04-24 21:45 17.40549 -69.01959 35955 ft 399 kts 231°
2026-04-24 21:46 17.36970 -69.06405 35955 ft 399 kts 231°
2026-04-24 21:46 17.33392 -69.10860 35954 ft 400 kts 231°
2026-04-24 21:47 17.29837 -69.15286 35952 ft 400 kts 231°
2026-04-24 21:47 17.26255 -69.19739 35952 ft 400 kts 231°
2026-04-24 21:48 17.22670 -69.24195 35954 ft 400 kts 231°
2026-04-24 21:48 17.19078 -69.28647 35950 ft 400 kts 231°
2026-04-24 21:49 17.15491 -69.33100 35951 ft 400 kts 231°
2026-04-24 21:49 17.11901 -69.37550 35946 ft 401 kts 231°
2026-04-24 21:50 17.08308 -69.42010 35946 ft 401 kts 231°
2026-04-24 21:50 17.04710 -69.46469 35944 ft 401 kts 231°
2026-04-24 21:51 17.01102 -69.50930 35945 ft 402 kts 231°
2026-04-24 21:51 16.97499 -69.55397 35945 ft 402 kts 231°
2026-04-24 21:52 16.93896 -69.59868 35945 ft 402 kts 231°
2026-04-24 21:52 16.90290 -69.64333 35945 ft 402 kts 231°
2026-04-24 21:53 16.86681 -69.68796 35946 ft 402 kts 231°
2026-04-24 21:53 16.83066 -69.73257 35944 ft 402 kts 231°
2026-04-24 21:54 16.79450 -69.77717 35942 ft 402 kts 231°
2026-04-24 21:54 16.75832 -69.82173 35939 ft 402 kts 231°
2026-04-24 21:55 16.72221 -69.86629 35940 ft 402 kts 231°
2026-04-24 21:55 16.68608 -69.91086 35940 ft 403 kts 231°
2026-04-24 21:56 16.64990 -69.95547 35936 ft 403 kts 231°
2026-04-24 21:56 16.61365 -70.00005 35939 ft 403 kts 231°
2026-04-24 21:57 16.57732 -70.04466 35940 ft 404 kts 231°
2026-04-24 21:57 16.54089 -70.08927 35941 ft 404 kts 231°
2026-04-24 21:58 16.50468 -70.13358 35941 ft 405 kts 231°
2026-04-24 21:58 16.46817 -70.17831 35941 ft 405 kts 231°
2026-04-24 21:59 16.43172 -70.22301 35943 ft 405 kts 231°
2026-04-24 21:59 16.39523 -70.26774 35944 ft 405 kts 231°
2026-04-24 22:00 16.35871 -70.31245 35941 ft 406 kts 231°
2026-04-24 22:00 16.32208 -70.35713 35945 ft 405 kts 231°
2026-04-24 22:01 16.28556 -70.40184 35939 ft 405 kts 231°
2026-04-24 22:01 16.24901 -70.44652 35940 ft 405 kts 231°
2026-04-24 22:02 16.21242 -70.49119 35940 ft 406 kts 231°
2026-04-24 22:02 16.17583 -70.53590 35935 ft 406 kts 231°
2026-04-24 22:03 16.13917 -70.58056 35929 ft 406 kts 231°
2026-04-24 22:03 16.10249 -70.62523 35931 ft 406 kts 231°
2026-04-24 22:04 16.06580 -70.66990 35937 ft 406 kts 230°
2026-04-24 22:04 16.02907 -70.71454 35936 ft 406 kts 230°
2026-04-24 22:05 15.99237 -70.75918 35931 ft 406 kts 231°
2026-04-24 22:05 15.95618 -70.80386 35925 ft 406 kts 231°
2026-04-24 22:06 15.91988 -70.84890 35924 ft 407 kts 231°
2026-04-24 22:06 15.88350 -70.89395 35923 ft 407 kts 231°
2026-04-24 22:07 15.84707 -70.93899 35926 ft 407 kts 231°
2026-04-24 22:07 15.81051 -70.98401 35929 ft 408 kts 231°
2026-04-24 22:08 15.77393 -71.02903 35927 ft 408 kts 231°
2026-04-24 22:08 15.73738 -71.07408 35932 ft 408 kts 230°
2026-04-24 22:09 15.70044 -71.11878 35936 ft 408 kts 230°
2026-04-24 22:09 15.66326 -71.16324 35935 ft 408 kts 230°
2026-04-24 22:10 15.62606 -71.20775 35935 ft 408 kts 230°
2026-04-24 22:10 15.58889 -71.25229 35935 ft 408 kts 230°
2026-04-24 22:11 15.55179 -71.29688 35929 ft 408 kts 230°
2026-04-24 22:11 15.51479 -71.34158 35930 ft 409 kts 230°
2026-04-24 22:12 15.47832 -71.38686 35932 ft 409 kts 231°
2026-04-24 22:12 15.44196 -71.43221 35930 ft 409 kts 231°
2026-04-24 22:13 15.40546 -71.47753 35929 ft 410 kts 231°
2026-04-24 22:13 15.36888 -71.52279 35929 ft 410 kts 230°
2026-04-24 22:14 15.33224 -71.56803 35933 ft 410 kts 230°
2026-04-24 22:14 15.29586 -71.61302 35933 ft 410 kts 230°
2026-04-24 22:15 15.25921 -71.65835 35931 ft 410 kts 230°
2026-04-24 22:15 15.22246 -71.70360 35932 ft 411 kts 230°
2026-04-24 22:16 15.18574 -71.74890 35934 ft 411 kts 230°
2026-04-24 22:16 15.14895 -71.79416 35931 ft 411 kts 230°
2026-04-24 22:17 15.11222 -71.83947 35937 ft 411 kts 230°
2026-04-24 22:17 15.07549 -71.88482 35931 ft 411 kts 230°
2026-04-24 22:18 15.03871 -71.93014 35930 ft 411 kts 230°
2026-04-24 22:18 15.00189 -71.97537 35938 ft 411 kts 230°
2026-04-24 22:19 14.96472 -72.02087 35933 ft 411 kts 230°
2026-04-24 22:19 14.92812 -72.06578 35941 ft 411 kts 230°
2026-04-24 22:20 14.89127 -72.11105 35928 ft 412 kts 230°
2026-04-24 22:20 14.85437 -72.15631 35935 ft 412 kts 230°
2026-04-24 22:21 14.81742 -72.20160 35929 ft 412 kts 230°
2026-04-24 22:21 14.78046 -72.24691 35930 ft 412 kts 230°
2026-04-24 22:22 14.74352 -72.29226 35924 ft 413 kts 230°
2026-04-24 22:22 14.70650 -72.33755 35924 ft 413 kts 230°
2026-04-24 22:23 14.66939 -72.38288 35922 ft 413 kts 230°
2026-04-24 22:23 14.63231 -72.42820 35924 ft 412 kts 230°
2026-04-24 22:24 14.60202 -72.46533 35912 ft 403 kts 230°
2026-04-24 22:24 14.56619 -72.50972 35929 ft 402 kts 230°
2026-04-24 22:25 14.53035 -72.55399 35921 ft 402 kts 230°
2026-04-24 22:25 14.49386 -72.59773 35921 ft 402 kts 229°
2026-04-24 22:26 14.45714 -72.64132 35916 ft 403 kts 229°
2026-04-24 22:26 14.42047 -72.68502 35934 ft 403 kts 229°
2026-04-24 22:27 14.38388 -72.72886 35919 ft 403 kts 230°
2026-04-24 22:27 14.34757 -72.77303 35922 ft 404 kts 230°
2026-04-24 22:28 14.31122 -72.81720 35929 ft 404 kts 230°
2026-04-24 22:28 14.27489 -72.86138 35931 ft 404 kts 230°
2026-04-24 22:29 14.22022 -72.92760 35936 ft 404 kts 230°
2026-04-24 22:29 14.18377 -72.97175 35928 ft 405 kts 230°
2026-04-24 22:30 14.14723 -73.01589 35924 ft 405 kts 230°
2026-04-24 22:30 14.11068 -73.06006 35927 ft 405 kts 230°
2026-04-24 22:31 14.07415 -73.10423 35923 ft 405 kts 230°
2026-04-24 22:31 14.03755 -73.14836 35925 ft 405 kts 230°
2026-04-24 22:32 14.00090 -73.19253 35934 ft 406 kts 230°
2026-04-24 22:32 13.96426 -73.23672 35930 ft 406 kts 230°
2026-04-24 22:33 13.92761 -73.28094 35924 ft 406 kts 229°
2026-04-24 22:33 13.88585 -73.31964 35929 ft 407 kts 212°
2026-04-24 22:34 13.83278 -73.34015 35920 ft 413 kts 192°
2026-04-24 22:34 13.77560 -73.34785 35917 ft 415 kts 191°
2026-04-24 22:35 13.71833 -73.35551 35916 ft 415 kts 191°
2026-04-24 22:35 13.66096 -73.36317 35918 ft 416 kts 190°
2026-04-24 22:36 13.60353 -73.37078 35915 ft 416 kts 190°
2026-04-24 22:36 13.54642 -73.37836 35920 ft 417 kts 190°
2026-04-24 22:37 13.48893 -73.38600 35920 ft 417 kts 190°
2026-04-24 22:37 13.43144 -73.39364 35922 ft 417 kts 190°
2026-04-24 22:38 13.37387 -73.40126 35922 ft 417 kts 190°
2026-04-24 22:38 13.31631 -73.40893 35924 ft 417 kts 190°
2026-04-24 22:39 13.25876 -73.41651 35928 ft 417 kts 190°
2026-04-24 22:39 13.20116 -73.42411 35928 ft 417 kts 190°
2026-04-24 22:40 13.14356 -73.43177 35925 ft 417 kts 190°
2026-04-24 22:40 13.08598 -73.43944 35926 ft 417 kts 190°
2026-04-24 22:41 13.02834 -73.44704 35922 ft 418 kts 189°
2026-04-24 22:41 12.97074 -73.45470 35922 ft 418 kts 189°
2026-04-24 22:42 12.91310 -73.46232 35925 ft 418 kts 189°
2026-04-24 22:42 12.85543 -73.46992 35924 ft 418 kts 189°
2026-04-24 22:43 12.79822 -73.47758 35924 ft 418 kts 189°
2026-04-24 22:43 12.74058 -73.48521 35924 ft 418 kts 189°
2026-04-24 22:44 12.68288 -73.49277 35921 ft 418 kts 189°
2026-04-24 22:44 12.62519 -73.50037 35922 ft 418 kts 189°
2026-04-24 22:45 12.56753 -73.50796 35918 ft 418 kts 189°
2026-04-24 22:45 12.50984 -73.51559 35917 ft 418 kts 189°
2026-04-24 22:46 12.45212 -73.52319 35918 ft 418 kts 189°
2026-04-24 22:46 12.39433 -73.53075 35920 ft 418 kts 189°
2026-04-24 22:47 12.33659 -73.53834 35920 ft 419 kts 189°
2026-04-24 22:47 12.27882 -73.54596 35915 ft 419 kts 189°
2026-04-24 22:48 12.22101 -73.55361 35917 ft 419 kts 188°
2026-04-24 22:48 12.16320 -73.56123 35918 ft 419 kts 188°
2026-04-24 22:49 12.10536 -73.56888 35916 ft 419 kts 188°
2026-04-24 22:49 12.04750 -73.57648 35915 ft 419 kts 188°
2026-04-24 22:50 11.98965 -73.58401 35916 ft 419 kts 188°
2026-04-24 22:50 11.93174 -73.59164 35917 ft 419 kts 188°
2026-04-24 22:51 11.87385 -73.59925 35918 ft 419 kts 188°
2026-04-24 22:51 11.81595 -73.60687 35915 ft 419 kts 188°
2026-04-24 22:52 11.75804 -73.61443 35914 ft 420 kts 188°
2026-04-24 22:52 11.70014 -73.62196 35916 ft 420 kts 188°
2026-04-24 22:53 11.64261 -73.62955 35914 ft 420 kts 188°
2026-04-24 22:53 11.58471 -73.63718 35912 ft 420 kts 188°
2026-04-24 22:54 11.52679 -73.64473 35916 ft 420 kts 188°
2026-04-24 22:54 11.46888 -73.65230 35915 ft 420 kts 188°
2026-04-24 22:55 11.41093 -73.65994 35921 ft 420 kts 188°
2026-04-24 22:55 11.35299 -73.66760 35930 ft 420 kts 188°
2026-04-24 22:56 11.29503 -73.67524 35942 ft 420 kts 188°
2026-04-24 22:56 11.23704 -73.68279 35958 ft 420 kts 188°
2026-04-24 22:57 11.17904 -73.69024 35978 ft 420 kts 188°
2026-04-24 22:57 11.12101 -73.69774 35996 ft 421 kts 188°
2026-04-24 22:58 11.06295 -73.70538 36010 ft 421 kts 188°
2026-04-24 22:58 11.00478 -73.71299 36030 ft 421 kts 187°
2026-04-24 22:59 10.94669 -73.72058 36036 ft 421 kts 187°
2026-04-24 23:00 10.85952 -73.73196 36053 ft 421 kts 188°
2026-04-24 23:00 10.80134 -73.73950 36059 ft 422 kts 188°
2026-04-24 23:01 10.74302 -73.74710 36061 ft 423 kts 188°
2026-04-24 23:01 10.68465 -73.75484 36050 ft 423 kts 188°
2026-04-24 23:02 10.62626 -73.76248 36038 ft 423 kts 188°
2026-04-24 23:02 10.56817 -73.76995 36024 ft 424 kts 188°
2026-04-24 23:03 10.50970 -73.77755 35997 ft 424 kts 188°
2026-04-24 23:03 10.45127 -73.78522 35985 ft 424 kts 188°
2026-04-24 23:04 10.39274 -73.79281 35971 ft 424 kts 187°
2026-04-24 23:04 10.33424 -73.80035 35954 ft 424 kts 187°
2026-04-24 23:05 10.27564 -73.80791 35942 ft 425 kts 187°
2026-04-24 23:05 10.21701 -73.81554 35933 ft 425 kts 187°
2026-04-24 23:06 10.15830 -73.82320 35918 ft 425 kts 187°
2026-04-24 23:06 10.09955 -73.83080 35912 ft 426 kts 187°
2026-04-24 23:07 10.04077 -73.83838 35907 ft 426 kts 187°
2026-04-24 23:07 9.98195 -73.84607 35903 ft 426 kts 187°
2026-04-24 23:08 9.92314 -73.85379 35899 ft 426 kts 187°
2026-04-24 23:08 9.86433 -73.86137 35896 ft 426 kts 187°
2026-04-24 23:09 9.80551 -73.86899 35898 ft 426 kts 187°
2026-04-24 23:09 9.74671 -73.87661 35895 ft 426 kts 187°
2026-04-24 23:10 9.68789 -73.88416 35894 ft 426 kts 187°
2026-04-24 23:10 9.62906 -73.89176 35897 ft 426 kts 187°
2026-04-24 23:11 9.58018 -73.89810 35896 ft 426 kts 187°
2026-04-24 23:11 9.51133 -73.90699 35895 ft 427 kts 187°
2026-04-24 23:12 9.46333 -73.91797 35888 ft 427 kts 198°
2026-04-24 23:12 9.40677 -73.93636 35885 ft 427 kts 198°
2026-04-24 23:13 9.35012 -73.95486 35884 ft 428 kts 198°
2026-04-24 23:13 9.29335 -73.97337 35882 ft 429 kts 198°
2026-04-24 23:14 9.23654 -73.99191 35884 ft 429 kts 198°
2026-04-24 23:14 9.17961 -74.01046 35889 ft 430 kts 198°
2026-04-24 23:15 9.12267 -74.02903 35894 ft 430 kts 198°
2026-04-24 23:15 9.06571 -74.04758 35904 ft 430 kts 197°
2026-04-24 23:16 9.00908 -74.06598 35906 ft 430 kts 197°
2026-04-24 23:16 8.95210 -74.08450 35899 ft 430 kts 197°
2026-04-24 23:17 8.89482 -74.10317 35864 ft 435 kts 197°
2026-04-24 23:17 8.83703 -74.12193 35863 ft 438 kts 197°
2026-04-24 23:18 8.77886 -74.14076 35869 ft 440 kts 197°
2026-04-24 23:18 8.72051 -74.15974 35879 ft 441 kts 197°
2026-04-24 23:19 8.66205 -74.17874 35892 ft 442 kts 197°
2026-04-24 23:19 8.60351 -74.19774 35900 ft 442 kts 197°
2026-04-24 23:20 8.54493 -74.21680 35913 ft 442 kts 197°
2026-04-24 23:20 8.48633 -74.23582 35771 ft 443 kts 197°
2026-04-24 23:20 8.45701 -74.24531 35491 ft 442 kts 197°
2026-04-24 23:21 8.42770 -74.25480 35209 ft 442 kts 197°
2026-04-24 23:21 8.39839 -74.26429 34928 ft 443 kts 197°
2026-04-24 23:21 8.36906 -74.27381 34658 ft 443 kts 197°
2026-04-24 23:21 8.33966 -74.28334 34391 ft 444 kts 197°
2026-04-24 23:22 8.31026 -74.29287 34115 ft 444 kts 197°
2026-04-24 23:22 8.28081 -74.30240 33843 ft 445 kts 197°
2026-04-24 23:22 8.25137 -74.31190 33510 ft 445 kts 197°
2026-04-24 23:22 8.22182 -74.32144 33129 ft 446 kts 197°
2026-04-24 23:23 8.19220 -74.33101 32756 ft 447 kts 197°
2026-04-24 23:23 8.16250 -74.34065 32380 ft 449 kts 197°
2026-04-24 23:23 8.13272 -74.35033 32019 ft 450 kts 197°
2026-04-24 23:23 8.10289 -74.36005 31667 ft 452 kts 197°
2026-04-24 23:24 8.07329 -74.36968 31308 ft 453 kts 197°
2026-04-24 23:24 8.04282 -74.37956 30956 ft 455 kts 197°
2026-04-24 23:24 8.01306 -74.38918 30617 ft 456 kts 197°
2026-04-24 23:24 7.98276 -74.39896 30274 ft 458 kts 197°
2026-04-24 23:25 7.95233 -74.40876 29916 ft 460 kts 197°
2026-04-24 23:25 7.92183 -74.41862 29520 ft 461 kts 197°
2026-04-24 23:25 7.89126 -74.42850 29120 ft 461 kts 197°
2026-04-24 23:25 7.86077 -74.43835 28735 ft 459 kts 197°
2026-04-24 23:26 7.83040 -74.44816 28349 ft 457 kts 197°
2026-04-24 23:26 7.80019 -74.45793 27971 ft 455 kts 198°
2026-04-24 23:26 7.77008 -74.46770 27597 ft 453 kts 198°
2026-04-24 23:26 7.74013 -74.47741 27224 ft 451 kts 198°
2026-04-24 23:27 7.71031 -74.48705 26881 ft 449 kts 198°
2026-04-24 23:27 7.68058 -74.49663 26638 ft 448 kts 198°
2026-04-24 23:27 7.65092 -74.50618 26396 ft 447 kts 198°
2026-04-24 23:27 7.62141 -74.51569 26166 ft 445 kts 198°
2026-04-24 23:28 7.59189 -74.52520 25932 ft 444 kts 198°
2026-04-24 23:28 7.56253 -74.53469 25699 ft 443 kts 198°
2026-04-24 23:28 7.53323 -74.54417 25463 ft 441 kts 198°
2026-04-24 23:28 7.50402 -74.55361 25232 ft 440 kts 198°
2026-04-24 23:29 7.47489 -74.56302 25008 ft 439 kts 198°
2026-04-24 23:29 7.44584 -74.57239 24783 ft 438 kts 198°
2026-04-24 23:29 7.41685 -74.58174 24560 ft 437 kts 198°
2026-04-24 23:29 7.38790 -74.59107 24338 ft 436 kts 198°
2026-04-24 23:30 7.35909 -74.60054 24125 ft 435 kts 201°
2026-04-24 23:30 7.33219 -74.61419 23906 ft 433 kts 211°
2026-04-24 23:30 7.30619 -74.62943 23682 ft 432 kts 211°
2026-04-24 23:30 7.28025 -74.64470 23461 ft 432 kts 211°
2026-04-24 23:31 7.25431 -74.65999 23193 ft 431 kts 211°
2026-04-24 23:31 7.22852 -74.67520 22912 ft 429 kts 211°
2026-04-24 23:31 7.20284 -74.69035 22636 ft 427 kts 211°
2026-04-24 23:31 7.17722 -74.70543 22360 ft 425 kts 211°
2026-04-24 23:32 7.15173 -74.72043 22089 ft 423 kts 211°
2026-04-24 23:32 7.12634 -74.73538 21819 ft 421 kts 211°
2026-04-24 23:32 7.10109 -74.75024 21561 ft 420 kts 211°
2026-04-24 23:32 7.07592 -74.76501 21298 ft 418 kts 211°
2026-04-24 23:33 7.05085 -74.77972 21038 ft 416 kts 211°
2026-04-24 23:33 7.02591 -74.79436 20783 ft 414 kts 211°
2026-04-24 23:33 7.00108 -74.80897 20530 ft 413 kts 211°
2026-04-24 23:33 6.97635 -74.82353 20278 ft 411 kts 211°
2026-04-24 23:34 6.95172 -74.83806 20020 ft 410 kts 211°
2026-04-24 23:34 6.92716 -74.85253 19800 ft 408 kts 211°
2026-04-24 23:34 6.90271 -74.86690 19591 ft 406 kts 211°
2026-04-24 23:34 6.87832 -74.88122 19384 ft 405 kts 211°
2026-04-24 23:35 6.85400 -74.89547 19202 ft 404 kts 211°
2026-04-24 23:35 6.82975 -74.90968 18999 ft 403 kts 211°
2026-04-24 23:35 6.80559 -74.92386 18805 ft 402 kts 211°
2026-04-24 23:35 6.78148 -74.93802 18610 ft 400 kts 211°
2026-04-24 23:36 6.75769 -74.95199 18435 ft 390 kts 211°
2026-04-24 23:36 6.73461 -74.96553 18243 ft 378 kts 211°
2026-04-24 23:36 6.71236 -74.97859 18042 ft 373 kts 211°
2026-04-24 23:36 6.69003 -74.99173 17843 ft 372 kts 211°
2026-04-24 23:37 6.66777 -75.00482 17641 ft 370 kts 211°
2026-04-24 23:37 6.64557 -75.01788 17448 ft 369 kts 211°
2026-04-24 23:37 6.60135 -75.04382 17059 ft 367 kts 211°
2026-04-24 23:38 6.57933 -75.05675 16862 ft 366 kts 211°
2026-04-24 23:38 6.55739 -75.06963 16671 ft 364 kts 211°
2026-04-24 23:38 6.53552 -75.08244 16476 ft 363 kts 211°
2026-04-24 23:38 6.51372 -75.09521 16290 ft 362 kts 211°
2026-04-24 23:39 6.49201 -75.10792 16110 ft 361 kts 211°
2026-04-24 23:39 6.47036 -75.12060 15956 ft 360 kts 211°
2026-04-24 23:39 6.44876 -75.13328 15817 ft 359 kts 211°
2026-04-24 23:39 6.42723 -75.14588 15674 ft 358 kts 211°
2026-04-24 23:40 6.40555 -75.15810 15544 ft 357 kts 207°
2026-04-24 23:40 6.38250 -75.16745 15415 ft 358 kts 199°
2026-04-24 23:40 6.35852 -75.17414 15286 ft 357 kts 196°
2026-04-24 23:40 6.33479 -75.18055 15160 ft 347 kts 196°
2026-04-24 23:41 6.31186 -75.18676 15029 ft 336 kts 197°
2026-04-24 23:41 6.28964 -75.19281 14906 ft 326 kts 197°
2026-04-24 23:41 6.26802 -75.19871 14777 ft 319 kts 197°
2026-04-24 23:41 6.24673 -75.20452 14645 ft 316 kts 197°
2026-04-24 23:42 6.22553 -75.21030 14513 ft 316 kts 197°
2026-04-24 23:42 6.20441 -75.21604 14385 ft 314 kts 197°
2026-04-24 23:42 6.18337 -75.22178 14248 ft 313 kts 197°
2026-04-24 23:42 6.16237 -75.22751 14097 ft 312 kts 197°
2026-04-24 23:43 6.14175 -75.23313 13933 ft 311 kts 197°
2026-04-24 23:43 6.12092 -75.23882 13754 ft 310 kts 197°
2026-04-24 23:43 6.10016 -75.24450 13577 ft 308 kts 197°
2026-04-24 23:43 6.07975 -75.25006 13402 ft 300 kts 197°
2026-04-24 23:44 6.05974 -75.25549 13218 ft 296 kts 197°
2026-04-24 23:44 6.03986 -75.26088 13058 ft 295 kts 197°
2026-04-24 23:44 6.02014 -75.26624 12944 ft 290 kts 197°
2026-04-24 23:44 6.00110 -75.27138 12949 ft 276 kts 197°
2026-04-24 23:45 5.98296 -75.27626 12950 ft 265 kts 197°
2026-04-24 23:45 5.96515 -75.28108 12946 ft 265 kts 197°
2026-04-24 23:45 5.94735 -75.28592 12944 ft 265 kts 197°
2026-04-24 23:45 5.92958 -75.29077 12942 ft 265 kts 197°
2026-04-24 23:46 5.91179 -75.29563 12936 ft 265 kts 198°
2026-04-24 23:46 5.89559 -75.30304 12926 ft 249 kts 218°
2026-04-24 23:46 5.88392 -75.31509 12923 ft 235 kts 238°
2026-04-24 23:46 5.87740 -75.32978 12791 ft 229 kts 258°
2026-04-24 23:47 5.87602 -75.34558 12657 ft 227 kts 270°
2026-04-24 23:47 5.87598 -75.36144 12509 ft 226 kts 269°
2026-04-24 23:47 5.87589 -75.37695 12365 ft 218 kts 270°
2026-04-24 23:47 5.87811 -75.39188 12036 ft 218 kts 288°
2026-04-24 23:48 5.88529 -75.40508 11804 ft 215 kts 308°
2026-04-24 23:48 5.89642 -75.41500 11632 ft 216 kts 327°
2026-04-24 23:48 5.91032 -75.42063 11421 ft 217 kts 347°
2026-04-24 23:48 5.92544 -75.42161 11175 ft 219 kts 358°
2026-04-24 23:49 5.94063 -75.42168 10915 ft 218 kts 358°
2026-04-24 23:49 5.95580 -75.42176 10651 ft 218 kts 358°
2026-04-24 23:49 5.97083 -75.42186 10395 ft 214 kts 358°
2026-04-24 23:49 5.98516 -75.42194 10143 ft 203 kts 358°
2026-04-24 23:50 5.99898 -75.42203 9882 ft 196 kts 358°
2026-04-24 23:50 6.01252 -75.42213 9636 ft 193 kts 358°
2026-04-24 23:50 6.02585 -75.42221 9408 ft 191 kts 357°
2026-04-24 23:50 6.03896 -75.42230 9146 ft 183 kts 358°
2026-04-24 23:51 6.05141 -75.42238 8913 ft 175 kts 358°
2026-04-24 23:51 6.06324 -75.42245 8705 ft 167 kts 358°
2026-04-24 23:51 6.07480 -75.42253 8493 ft 165 kts 358°
2026-04-24 23:51 6.08625 -75.42261 8283 ft 164 kts 358°
2026-04-24 23:52 6.09765 -75.42268 8073 ft 163 kts 358°
2026-04-24 23:52 6.10898 -75.42276 7845 ft 162 kts 358°
2026-04-24 23:52 6.12015 -75.42284 7641 ft 160 kts 359°
2026-04-24 23:52 6.13116 -75.42291 7399 ft 157 kts 359°
2026-04-24 23:53 6.14197 -75.42301 7170 ft 155 kts 359°
2026-04-24 23:53 6.15269 -75.42310 6983 ft 153 kts 359°
2026-04-24 23:53 6.16140 -75.42312 6984 ft 100 kts 360°
2026-04-24 23:53 6.16662 -75.42315 7001 ft 52 kts 359°
2026-04-24 23:54 6.16908 -75.42322 7010 ft 25 kts 348°
2026-04-24 23:54 6.17056 -75.42381 7017 ft 21 kts 332°
2026-04-24 23:54 6.17163 -75.42442 7018 ft 11 kts 329°
2026-04-24 23:54 6.17191 -75.42508 7017 ft 11 kts 269°
2026-04-24 23:55 6.17193 -75.42592 7016 ft 13 kts 284°
2026-04-24 23:55 6.17252 -75.42619 7016 ft 10 kts 359°
2026-04-24 23:55 6.17310 -75.42656 7018 ft 11 kts 305°
2026-04-24 23:55 6.17350 -75.42712 7016 ft 6 kts 306°
2026-04-24 23:56 6.17337 -75.42747 7019 ft 6 kts 220°
2026-04-24 23:56 6.17311 -75.42764 7018 ft 4 kts 213°
2026-04-24 23:56 6.17297 -75.42773 7020 ft 0 kts 213°